GW3138 Weather Reports


Display with metric or nautical units.
time (UTC)temp
F
wind
direction
speed
MPH
gust
MPH
rain 1hr
in
rain 24hr
in
rain mn
in
humidity
%
barometer
mb
20260504174530 73 4 1.0 6.0 0.00 0.02 0.02 48 1017.2
20260504174012 74 94 0.0 6.0 0.00 0.02 0.02 47 1017.2
20260504173513 73 0 1.0 6.0 0.00 0.02 0.02 51 1017.2
20260504173034 73 286 0.0 4.0 0.00 0.02 0.02 53 1017.3
20260504172509 72 28 1.0 4.0 0.00 0.02 0.02 54 1017.4
20260504172014 73 37 0.0 4.0 0.00 0.02 0.02 51 1017.5
20260504171532 74 52 0.0 4.0 0.00 0.02 0.02 50 1017.6
20260504171014 73 65 1.0 4.0 0.00 0.02 0.02 50 1017.7
20260504170512 74 116 0.0 2.0 0.00 0.02 0.02 55 1017.6
20260504151010 66 0 1.0 4.0 0.00 0.02 0.02 57 1018.5
20260504150511 65 0 0.0 4.0 0.00 0.02 0.02 58 1018.5
20260504141013 64 0 0.0 1.0 0.00 0.02 0.02 60 1018.9
20260504140513 63 121 0.0 1.0 0.00 0.02 0.02 64 1018.8
20260504130511 56 0 0.0 0.0 0.00 0.02 0.02 91 1018.6
20260504110511 46 0 0.0 0.0 0.00 0.02 0.02 95 1018.1
20260504100513 46 0 0.0 1.0 0.00 0.02 0.02 96 1017.9
20260504081534 47 0 0.0 0.0 0.02 0.02 0.02 93 1017.8
20260504081013 48 0 0.0 1.0 0.02 0.02 0.02 92 1017.7
20260504080513 50 0 0.0 1.0 0.02 0.02 0.02 91 1017.7
20260504050513 54 0 0.0 1.0 0.00 0.00 0.00 59 1018.7
20260504045515 55 0 0.0 1.0 0.00 0.00 0.00 60 1018.5
20260504045014 55 123 0.0 1.0 0.00 0.00 0.00 61 1018.5
20260504044532 54 0 0.0 1.0 0.00 0.00 0.00 62 1018.6
20260504044012 54 0 0.0 1.0 0.00 0.00 0.00 61 1018.6
20260504043511 54 0 0.0 1.0 0.00 0.00 0.00 61 1018.8
20260504043029 55 0 0.0 1.0 0.00 0.00 0.00 62 1018.9
20260504042513 54 0 0.0 1.0 0.00 0.00 0.00 62 1018.8
20260504042012 55 0 0.0 1.0 0.00 0.00 0.00 62 1018.9
20260504041529 54 0 0.0 1.0 0.00 0.00 0.00 63 1018.9
20260504041014 54 0 0.0 1.0 0.00 0.00 0.00 63 1019.1
20260504040522 55 0 0.0 1.0 0.00 0.00 0.00 61 1019.1
20260504040034 55 0 0.0 1.0 0.00 0.00 0.00 58 1019.1
20260504035512 55 0 0.0 1.0 0.00 0.00 0.00 58 1019.1
20260504035015 55 0 0.0 0.0 0.00 0.00 0.00 59 1019.0
20260504034531 55 0 0.0 1.0 0.00 0.00 0.00 59 1018.9
20260504034012 55 0 0.0 1.0 0.00 0.00 0.00 60 1018.9
20260504033509 55 0 0.0 2.0 0.00 0.00 0.00 61 1019.0
20260504033032 55 0 0.0 2.0 0.00 0.00 0.00 62 1019.1
20260504032518 55 0 0.0 2.0 0.00 0.00 0.00 61 1019.2
20260504032015 55 106 0.0 2.0 0.00 0.00 0.00 62 1019.1
20260504031532 55 0 0.0 1.0 0.00 0.00 0.00 61 1019.0
20260504031013 55 0 0.0 1.0 0.00 0.00 0.00 62 1019.0
20260504030512 55 0 0.0 1.0 0.00 0.00 0.00 61 1018.9
20260504030035 55 0 0.0 1.0 0.00 0.00 0.00 61 1018.9
20260504025510 55 0 0.0 1.0 0.00 0.00 0.00 61 1019.0
20260504025014 55 0 0.0 1.0 0.00 0.00 0.00 60 1019.1
20260504024532 55 0 0.0 1.0 0.00 0.00 0.00 59 1019.2
20260504024010 55 0 0.0 2.0 0.00 0.00 0.00 60 1018.9
20260504023512 56 0 0.0 2.0 0.00 0.00 0.00 58 1018.9
20260504023031 56 0 0.0 2.0 0.00 0.00 0.00 58 1018.9
20260504022514 55 0 0.0 1.0 0.00 0.00 0.00 58 1018.8
20260504022014 55 0 0.0 1.0 0.00 0.00 0.00 58 1018.9
20260504021532 55 111 0.0 1.0 0.00 0.00 0.00 58 1018.9
20260504021012 55 0 0.0 1.0 0.00 0.00 0.00 59 1018.9
20260504020511 55 0 0.0 1.0 0.00 0.00 0.00 58 1018.8
20260504020030 55 0 0.0 1.0 0.00 0.00 0.00 57 1018.7
20260504015512 55 103 0.0 1.0 0.00 0.00 0.00 57 1018.6
20260504015011 55 0 0.0 1.0 0.00 0.00 0.00 56 1018.7
20260504014530 55 0 0.0 1.0 0.00 0.00 0.00 56 1018.7
20260504014012 56 103 0.0 1.0 0.00 0.00 0.00 56 1018.7
20260504013511 55 0 0.0 1.0 0.00 0.00 0.00 56 1018.5
20260504013035 55 0 0.0 1.0 0.00 0.00 0.00 56 1018.4
20260504012511 55 0 0.0 1.0 0.00 0.00 0.00 57 1018.3
20260504012013 55 0 0.0 1.0 0.00 0.00 0.00 57 1018.4
20260504011534 55 0 0.0 1.0 0.00 0.00 0.00 56 1018.3
20260504011011 56 0 0.0 1.0 0.00 0.00 0.00 56 1018.3
20260504010510 56 0 0.0 1.0 0.00 0.00 0.00 57 1018.3
20260504010029 56 0 0.0 1.0 0.00 0.00 0.00 56 1018.3
20260504005511 56 0 0.0 1.0 0.00 0.00 0.00 57 1018.2
20260504005029 56 0 0.0 1.0 0.00 0.00 0.00 55 1018.3
20260504004530 56 0 0.0 1.0 0.00 0.00 0.00 55 1018.3
20260504004011 56 0 0.0 1.0 0.00 0.00 0.00 55 1018.3
20260504003516 56 0 0.0 3.0 0.00 0.00 0.00 55 1018.2
20260504003039 57 0 0.0 3.0 0.00 0.00 0.00 56 1018.1
20260504002511 57 0 0.0 1.0 0.00 0.00 0.00 55 1018.1
20260504002014 57 0 0.0 2.0 0.00 0.00 0.00 55 1018.2
20260504001538 58 119 0.0 2.0 0.00 0.00 0.00 54 1018.1
20260504001013 58 0 0.0 2.0 0.00 0.00 0.00 54 1018.1
20260504000513 58 0 0.0 1.0 0.00 0.00 0.00 54 1018.1
20260504000051 59 0 0.0 3.0 0.00 0.00 0.00 54 1018.0
20260503235513 59 0 0.0 3.0 0.00 0.00 0.00 53 1018.0
20260503235013 59 0 0.0 2.0 0.00 0.00 0.00 54 1018.0
20260503234529 59 139 0.0 4.0 0.00 0.00 0.00 53 1017.9
20260503234011 60 131 0.0 4.0 0.00 0.00 0.00 53 1017.9
20260503233512 60 129 0.0 4.0 0.00 0.00 0.00 51 1018.0
20260503233031 60 0 0.0 3.0 0.00 0.00 0.00 52 1018.0
20260503232512 60 95 0.0 3.0 0.00 0.00 0.00 53 1018.0
20260503232013 61 0 0.0 3.0 0.00 0.00 0.00 55 1018.0
20260503231532 61 0 0.0 3.0 0.00 0.00 0.00 51 1017.9
20260503231011 61 0 0.0 2.0 0.00 0.00 0.00 52 1018.0
20260503230514 61 0 0.0 2.0 0.00 0.00 0.00 54 1018.0
20260503230030 62 0 0.0 2.0 0.00 0.00 0.00 52 1018.0
20260503225512 62 0 0.0 2.0 0.00 0.00 0.00 53 1018.0
20260503225012 62 242 0.0 1.0 0.00 0.00 0.00 55 1018.0
20260503224530 63 0 0.0 3.0 0.00 0.00 0.00 53 1018.0
20260503224011 63 0 0.0 3.0 0.00 0.00 0.00 51 1018.0
20260503223514 63 0 0.0 3.0 0.00 0.00 0.00 52 1018.0
20260503223038 64 113 0.0 3.0 0.00 0.00 0.00 51 1018.0
20260503222510 64 0 0.0 4.0 0.00 0.00 0.00 50 1018.1
20260503222013 65 0 0.0 4.0 0.00 0.00 0.00 48 1018.1
20260503221546 65 0 0.0 4.0 0.00 0.00 0.00 51 1018.1
20260503221012 66 0 0.0 1.0 0.00 0.00 0.00 47 1018.2
20260503220514 66 0 0.0 2.0 0.00 0.00 0.00 49 1018.3
20260503220030 67 0 0.0 2.0 0.00 0.00 0.00 50 1018.2
20260503215512 67 63 0.0 2.0 0.00 0.00 0.00 47 1018.3
20260503215014 67 0 0.0 3.0 0.00 0.00 0.00 49 1018.3
20260503214533 67 39 0.0 3.0 0.00 0.00 0.00 50 1018.3
20260503214017 68 25 0.0 3.0 0.00 0.00 0.00 45 1018.3
20260503213518 68 67 0.0 4.0 0.00 0.00 0.00 47 1018.3
20260503213031 67 0 0.0 4.0 0.00 0.00 0.00 48 1018.3
20260503212513 67 35 1.0 8.0 0.00 0.00 0.00 48 1018.4
20260503212014 67 0 0.0 8.0 0.00 0.00 0.00 47 1018.5
20260503211533 68 4 2.0 6.0 0.00 0.00 0.00 47 1018.4
20260503211015 68 0 0.0 5.0 0.00 0.00 0.00 46 1018.6
20260503210515 68 0 0.0 5.0 0.00 0.00 0.00 45 1018.6
20260503210033 68 46 1.0 5.0 0.00 0.00 0.00 45 1018.5
20260503205515 69 41 0.0 3.0 0.00 0.00 0.00 44 1018.6
20260503205015 69 27 0.0 3.0 0.00 0.00 0.00 50 1018.7
20260503204531 68 330 0.0 3.0 0.00 0.00 0.00 47 1018.8
20260503204014 68 0 0.0 6.0 0.00 0.00 0.00 50 1018.8
20260503203516 67 0 0.0 6.0 0.00 0.00 0.00 47 1018.8
20260503203041 68 92 0.0 4.0 0.00 0.00 0.00 49 1019.0
20260503202515 68 75 0.0 4.0 0.00 0.00 0.00 44 1019.0
20260503202015 68 103 0.0 6.0 0.00 0.00 0.00 48 1019.2
20260503201537 67 0 0.0 6.0 0.00 0.00 0.00 48 1019.3
20260503201014 67 316 1.0 6.0 0.00 0.00 0.00 47 1019.5
20260503200512 67 349 0.0 6.0 0.00 0.00 0.00 45 1019.5
20260503200036 68 36 1.0 6.0 0.00 0.00 0.00 50 1019.5
20260503195513 68 94 1.0 4.0 0.00 0.00 0.00 53 1019.6
20260503195015 68 37 0.0 4.0 0.00 0.00 0.00 44 1019.8
20260503194531 68 8 1.0 4.0 0.00 0.00 0.00 44 1019.8
20260503194015 69 61 0.0 2.0 0.00 0.00 0.00 45 1019.9
20260503193515 67 0 0.0 3.0 0.00 0.00 0.00 46 1020.0
20260503193032 67 75 0.0 3.0 0.00 0.00 0.00 46 1020.2
20260503192514 67 345 0.0 3.0 0.00 0.00 0.00 47 1020.3
20260503192015 67 322 0.0 3.0 0.00 0.00 0.00 48 1020.3
20260503191532 67 52 0.0 3.0 0.00 0.00 0.00 49 1020.4
20260503191015 66 36 0.0 3.0 0.00 0.00 0.00 45 1020.4
20260503190520 67 360 1.0 3.0 0.00 0.00 0.00 44 1020.4
20260503190037 66 14 0.0 3.0 0.00 0.00 0.00 48 1020.4
20260503185515 66 37 1.0 4.0 0.00 0.00 0.00 43 1020.5
20260503185013 66 0 0.0 6.0 0.00 0.00 0.00 41 1020.6
20260503184532 66 26 0.0 6.0 0.00 0.00 0.00 50 1020.6
20260503184015 66 24 1.0 6.0 0.00 0.00 0.00 48 1020.6
20260503183517 66 328 2.0 5.0 0.00 0.00 0.00 48 1020.7
20260503183031 66 0 0.0 3.0 0.00 0.00 0.00 52 1020.7
20260503182516 65 110 0.0 7.0 0.00 0.00 0.00 50 1020.7
20260503182012 65 0 0.0 7.0 0.00 0.00 0.00 47 1020.9
20260503181531 66 342 2.0 7.0 0.00 0.00 0.00 50 1020.9
20260503181012 66 101 0.0 4.0 0.00 0.00 0.00 50 1020.9
20260503180513 65 0 0.0 5.0 0.00 0.00 0.00 50 1021.0
20260503180032 65 23 0.0 5.0 0.00 0.00 0.00 48 1021.0
20260503175512 65 0 0.0 3.0 0.00 0.00 0.00 49 1021.0
20260503175011 64 0 0.0 10.0 0.00 0.00 0.00 51 1020.9